Find Starlink 31736

NORAD ID: 59547 Int'l Des: 2024-074 Owner: SPXS Country: US Constellation: starlink operational
LEOCIRCULAR

Live Position

Loading 3D Globe...

About Starlink 31736

Description loading...

Upcoming Passes

Passes for default location (London). Set your location on the main map for personalized predictions.

Altitude History

Loading altitude history...

Two-Line Element Set

1 59547U 24074P 26124.13084156 -.00000843 00000-0 -21112-4 0 9998
2 59547 43.0022 23.4666 0001117 269.7327 90.3397 15.27586706114572
Epoch: May 4, 2026 • Age: 7 hours

Current Status

Altitude 482.3 km
Velocity 7.63 km/s
Sub-Earth Point 7.18°N, 179.45°E
Launch Date Apr 18, 2024
Age 2 years
Type internet

Technical Details

Classification Payload
Mass 730.00 kg
Dry Mass 700.00 kg
Total Mass 730.00 kg
Length 0.30 m
Diameter 4.10 m
Span 29.00 m
Shape Box + pan
Manufacturer SPXS
Bus Type Starlink V2M
Phase Status In Orbit
Owner/State SPXS/US

Most Searched